www.pogodaiklimat.ru

Погода и климат >> Архив погоды >> Бразилия >> Мату-Гросу >> Сан-Феликс-ду-Арагуайя


ПОГОДА в Сан-Феликс-ду-Арагуайе

  • Прогноз погоды в Сан-Феликс-ду-Арагуайе
  • Монитор погоды в Сан-Феликс-ду-Арагуайе

АРХИВ ПОГОДЫ в Сан-Феликс-ду-Арагуайе

Время (UTC), дата Ветер
(напр.,м/с)
 
Видим.   Явления Облачность Т
(С)
Тd
(С)
f
(%)
Тe
(С)
Тes
(С)
Комфортность P
(гПа)
Po
(гПа)
Тmin
(С)
Tmax
(С)
R
(мм)
R24
(мм)
S
(см)
04 15.04 штиль 0
{1}
н/о н/о +25.7 +21 +21 комфорт 1012.0 989.0
05 15.04 СЗ 1
{1}
н/о н/о +25.6 +21 +21 комфорт 1011.5 988.5
06 15.04 СЗ 1
{1}
н/о н/о +25.4 +21 +21 комфорт 1010.9 987.9
07 15.04 штиль 0
{1}
н/о н/о +25.3 +21 +21 комфорт 1010.7 987.7
08 15.04 штиль 0
{1}
н/о н/о +25.4 +21 +21 комфорт 1011.2 988.2
09 15.04 штиль 0
{1}
н/о н/о +25.1 +21 +21 комфорт 1012.1 989.0
10 15.04 штиль 0
{1}
н/о н/о +25.5 +21 +21 комфорт 1012.6 989.5
11 15.04 ЮЗ 1
{2}
н/о н/о +27.2 +16.6 52 +31 +31 душно 1012.9 990.0
12 15.04 ЮЗ 1
{3}
н/о н/о +28.8 +6.8 25 +28 +28 жарко 1013.4 990.6
13 15.04 Ю 2
{3}
н/о н/о +28.9 +7.1 25 +28 +28 жарко 1014.3 991.4
14 15.04 ЮЗ 1
{3}
н/о н/о +30.7 -0.9 13 +28 +28 жарко 1013.3 990.6
15 15.04 ЮЗ 1
{2}
н/о н/о +31.3 -4.4 10 +28 +28 жарко 1012.4 989.8
16 15.04 З 1
{2}
н/о н/о +31.5 +26 +26 жарко 1011.5 988.9
17 15.04 ЮЗ 1
{2}
н/о н/о +32.2 +27 +27 жарко 1009.9 987.4
18 15.04 ЮВ 1
{3}
н/о н/о +29.9 -19.9 3 +25 +25 комфорт 1009.3 986.6
19 15.04 С 1
{3}
н/о н/о +30.1 -19.8 3 +25 +25 комфорт 1009.0 986.4
20 15.04 СЗ 1
{2}
н/о н/о +29.4 -20.2 3 +25 +25 комфорт 1009.3 986.6
21 15.04 штиль 0
{2}
н/о н/о +28.1 +23 +23 комфорт 1009.5 986.7
22 15.04 СВ 1
{2}
н/о н/о +25.9 +22 +22 комфорт 1009.8 986.8
23 15.04 штиль 0
{2}
н/о н/о +25.2 +21 +21 комфорт 1011.0 987.9
00 16.04 СВ 1
{2}
н/о н/о +25.5 +21 +21 комфорт 1012.0 988.9
01 16.04 штиль 0
{2}
н/о н/о +25.0 +21 +21 комфорт 1012.9 989.8
02 16.04 штиль 0
{1}
н/о н/о +25.0 +21 +21 комфорт 1013.2 990.1
03 16.04 штиль 0
{1}
н/о н/о +24.6 +21 +21 комфорт 1013.0 989.9
04 16.04 штиль 0
{1}
н/о н/о +25.1 +21 +21 комфорт 1012.8 989.7
05 16.04 штиль 0
{1}
н/о н/о +25.3 +21 +21 комфорт 1012.3 989.2
06 16.04 СВ 1
{1}
н/о н/о +25.0 +21 +21 комфорт 1012.0 988.9
07 16.04
{1}
н/о н/о +25.2 1012.0 988.9
08 16.04 З 1
{2}
н/о н/о +25.1 +21 +21 комфорт 1012.7 989.6
09 16.04 штиль 0
{2}
н/о н/о +25.0 +21 +21 комфорт 1012.5 989.4
10 16.04 З 1
{1}
н/о н/о +25.1 +21 +21 комфорт 1013.9 990.8
11 16.04 З 1
{3}
н/о н/о +24.8 +21 +21 комфорт 1014.1 990.9
12 16.04 З 1
{2}
н/о н/о +24.7 -14.3 7 +22 +22 комфорт 1014.7 991.5
13 16.04 ЮЗ 1
{2}
н/о н/о +26.5 -22.2 3 +22 +22 комфорт 1014.9 991.9
14 16.04 ЮЗ 1
{2}
н/о н/о +27.5 -21.6 3 +23 +23 комфорт 1014.6 991.6
15 16.04 ЮЗ 1
{2}
н/о н/о +30.0 +25 +25 комфорт 1013.1 990.4
16 16.04 З 1
{3}
н/о н/о +29.6 -20.2 3 +25 +25 комфорт 1012.5 989.7
17 16.04 СЗ 1
{3}
н/о н/о +30.6 +25 +25 комфорт 1011.3 988.6
18 16.04 СЗ 1
{2}
н/о н/о +30.7 +26 +26 жарко 1010.3 987.7
19 16.04 С 1
{2}
н/о н/о +32.0 +27 +27 жарко 1009.2 986.7
20 16.04 штиль 0
{2}
н/о н/о +31.1 +26 +26 жарко 1009.5 986.9
21 16.04 З 1
{3}
н/о н/о +27.7 +23 +23 комфорт 1009.7 986.9
22 16.04 З 1
{2}
н/о н/о +26.8 +22 +22 комфорт 1010.0 987.1
23 16.04 штиль 0
{2}
н/о н/о +25.7 +21 +21 комфорт 1010.7 987.7
00 17.04 штиль 0
{1}
н/о н/о +25.2 +21 +21 комфорт 1011.6 988.5
01 17.04 штиль 0 н/о н/о +24.8 -23.4 3 +21 +21 комфорт 1012.0 988.9
02 17.04 СЗ 1
{1}
н/о н/о +25.1 +21 +21 комфорт 1012.1 989.0
03 17.04 штиль 0
{1}
н/о н/о +24.6 +21 +21 комфорт 1012.1 989.0
04 17.04 штиль 0
{1}
н/о н/о +24.5 +21 +21 комфорт 1011.6 988.5
05 17.04 штиль 0
{1}
н/о н/о +24.1 -23.9 3 +21 +21 комфорт 1011.2 988.1
06 17.04 З 1
{1}
н/о н/о +24.4 -23.7 3 +21 +21 комфорт 1010.5 987.4
07 17.04 З 1
{1}
н/о н/о +24.4 -23.7 3 +21 +21 комфорт 1010.3 987.2
08 17.04 З 1
{1}
н/о н/о +24.0 -24.0 3 +21 +21 комфорт 1010.2 987.1
09 17.04 З 1
{1}
н/о н/о +24.4 +20 +20 1010.7 987.6
10 17.04 штиль 0
{1}
н/о н/о +24.3 +20 +20 1011.5 988.4
11 17.04 штиль 0
{1}
н/о н/о +25.7 -22.8 3 +22 +22 комфорт 1012.5 989.4
12 17.04 З 1
{2}
н/о н/о +27.7 +23 +23 комфорт 1012.8 989.9
13 17.04 СЗ 1
{2}
н/о н/о +28.9 -20.7 3 +24 +24 комфорт 1013.7 990.9
14 17.04 СЗ 1
{3}
н/о н/о +31.4 +26 +26 жарко 1013.4 990.8
15 17.04 З 1
{3}
н/о н/о +31.3 +26 +26 жарко 1012.6 990.0
16 17.04 СЗ 1
{3}
н/о н/о +31.1 +26 +26 жарко 1011.3 988.7
17 17.04 СЗ 1
{2}
н/о н/о +32.4 +27 +27 жарко 1010.2 987.7
18 17.04 З 1
{2}
н/о н/о +32.2 +27 +27 жарко 1009.0 986.5
19 17.04 штиль 0
{2}
н/о н/о +33.6 +28 +28 жарко 1008.4 986.0
20 17.04 штиль 0
{2}
н/о н/о +32.1 +27 +27 жарко 1008.7 986.2
21 17.04 штиль 0
{1}
н/о н/о +31.2 -4.4 10 +28 +28 жарко 1008.8 986.2
22 17.04 штиль 0
{2}
н/о н/о +28.0 +14.5 44 +30 +30 жарко 1009.1 986.3
23 17.04 СВ 1
{2}
н/о н/о +27.4 +19.1 61 +33 +33 очень
душно
1010.2 987.3
00 18.04 штиль 0
{2}
н/о н/о +27.1 +19.7 64 +33 +33 очень
душно
1011.5 988.6
01 18.04 штиль 0
{1}
н/о н/о +26.1 +22 +22 комфорт 1011.8 988.8
02 18.04 СВ 1
{1}
н/о н/о +25.5 +20.8 75 +32 +32 очень
душно
1012.0 988.9
03 18.04 штиль 0
{1}
н/о н/о +25.2 +6.0 29 +25 +25 комфорт 1012.0 988.9
04 18.04 штиль 0
{1}
н/о н/о +24.8 +14.4 52 +27 +27 жарко 1011.3 988.2
05 18.04 штиль 0
{1}
н/о н/о +24.6 +8.7 36 +25 +25 комфорт 1010.7 987.6
06 18.04 СВ 1
{2}
н/о н/о +24.4 +5.6 30 +24 +24 комфорт 1010.5 987.4
07 18.04 СВ 1
{2}
н/о н/о +23.9 +4.3 28 +24 +24 комфорт 1010.4 987.3
08 18.04 штиль 0
{1}
н/о н/о +23.8 +10.1 42 +25 +25 комфорт 1010.5 987.3
09 18.04 штиль 0 н/о н/о +23.7 +10.3 43 +25 +25 комфорт 1010.9 987.7
10 18.04 штиль 0
{1}
н/о н/о +24.2 -23.8 3 +21 +21 комфорт 1011.5 988.4 0.2
11 18.04 С 1
{1}
н/о н/о +26.2 +22 +22 комфорт 1012.3 989.3
12 18.04 штиль 0
{2}
н/о н/о +27.9 +23 +23 комфорт 1012.8 989.9
13 18.04 СВ 1
{1}
н/о н/о +29.7 +25 +25 комфорт 1013.0 990.2
14 18.04 В 1
{2}
н/о н/о +31.0 +26 +26 жарко 1012.7 990.0
15 18.04 ЮЗ 1
{2}
н/о н/о +32.4 +27 +27 жарко 1011.7 989.2
16 18.04 З 1
{2}
н/о н/о +32.6 +27 +27 жарко 1010.4 987.9
17 18.04 ЮЗ 1
{2}
н/о н/о +33.9 +29 +29 жарко 1009.1 986.7
18 18.04 штиль 0
{2}
н/о н/о +33.9 +29 +29 жарко 1007.8 985.5
19 18.04 штиль 0
{2}
н/о н/о +33.2 +28 +28 жарко 1007.3 984.9
20 18.04 ЮЗ 1
{1}
н/о н/о +33.6 +28 +28 жарко 1007.4 985.0
21 18.04 ЮЗ 1
{4}
н/о н/о +29.6 +25 +25 комфорт 1008.0 985.3
22 18.04 З 1
{2}
н/о н/о +27.7 -21.4 3 +23 +23 комфорт 1008.3 985.5
23 18.04 З 1
{1}
н/о н/о +27.1 -21.8 3 +23 +23 комфорт 1009.2 986.3
00 19.04 ЮЗ 1
{1}
н/о н/о +27.1 -21.9 3 +23 +23 комфорт 1010.1 987.2
01 19.04 штиль 0
{1}
н/о н/о +26.1 +22 +22 комфорт 1010.9 987.9
02 19.04 штиль 0
{1}
н/о н/о +25.7 +21 +21 комфорт 1011.4 988.4
03 19.04 штиль 0
{1}
н/о н/о +25.8 +21 +21 комфорт 1011.0 988.0
04 19.04 СВ 1
{2}
н/о н/о +24.9 +21 +21 комфорт 1010.7 987.6
05 19.04 штиль 0
{2}
н/о н/о +25.0 +21 +21 комфорт 1010.2 987.1
06 19.04 штиль 0
{1}
н/о н/о +24.7 +21 +21 комфорт 1010.1 987.0
07 19.04 СВ 1
{1}
н/о н/о +24.6 +21 +21 комфорт 1010.2 987.1
08 19.04 СВ 1
{1}
н/о н/о +24.6 +21 +21 комфорт 1010.3 987.2
09 19.04 В 1
{1}
н/о н/о +24.6 -23.5 3 +21 +21 комфорт 1010.9 987.8
10 19.04 штиль 0
{1}
н/о н/о +25.0 +21 +21 комфорт 1011.8 988.7
11 19.04 С 1
{2}
н/о н/о +27.0 -21.9 3 +23 +23 комфорт 1012.7 989.7
12 19.04 штиль 0
{2}
н/о н/о +28.0 +23 +23 комфорт 1013.3 990.4
13 19.04 штиль 0
{2}
н/о н/о +30.6 +25 +25 комфорт 1013.2 990.5
14 19.04 Ю 1
{2}
н/о н/о +32.1 +27 +27 жарко 1012.7 990.1
15 19.04 Ю 2
{3}
н/о н/о +32.1 +27 +27 жарко 1011.8 989.2
16 19.04 ЮВ 1
{4}
н/о н/о +29.9 +25 +25 комфорт 1011.4 988.7
17 19.04 З 1
{2}
н/о н/о +30.9 +26 +26 жарко 1009.8 987.2 0.2
18 19.04 З 1
{2}
н/о н/о +30.2 +25 +25 комфорт 1008.9 986.3
19 19.04 С 2
{3}
н/о н/о +30.2 +25 +25 комфорт 1008.9 986.3
20 19.04 СВ 1
{2}
н/о н/о +29.6 +25 +25 комфорт 1009.1 986.4
21 19.04 ЮВ 1
{3}
н/о н/о +27.1 +22 +22 комфорт 1009.1 986.2
22 19.04 В 1
{1}
н/о н/о +26.0 +22 +22 комфорт 1010.1 987.1
23 19.04 штиль 0
{1}
н/о н/о +25.5 +21 +21 комфорт 1010.9 987.9
00 20.04 В 1
{1}
н/о н/о +25.2 +21 +21 комфорт 1012.1 989.0
01 20.04 штиль 0
{1}
н/о н/о +24.9 +21 +21 комфорт 1012.6 989.5
02 20.04 СВ 1
{1}
н/о н/о +24.7 +21 +21 комфорт 1012.2 989.1
03 20.04 СВ 1
{1}
н/о н/о +24.5 +21 +21 комфорт 1012.0 988.9
04 20.04 штиль 0
{1}
н/о н/о +24.3 +20 +20 1011.4 988.3
05 20.04 штиль 0
{1}
н/о н/о +23.9 -6.8 12 +22 +22 комфорт 1011.1 987.9
06 20.04 штиль 0 н/о н/о +23.9 +8.4 37 +24 +24 комфорт 1011.0 987.8
07 20.04 штиль 0
{1}
н/о н/о +23.9 +12.1 48 +26 +26 жарко 1011.1 987.9
08 20.04 штиль 0
{1}
н/о н/о +23.9 +2.1 24 +23 +23 комфорт 1011.5 988.3
09 20.04 штиль 0
{1}
н/о н/о +23.9 +6.5 33 +24 +24 комфорт 1012.3 989.1
10 20.04 С 1
{2}
н/о н/о +24.4 +20 +20 1013.3 990.1
11 20.04 С 1
{1}
н/о н/о +25.9 +22 +22 комфорт 1014.2 991.1
12 20.04 С 1
{2}
н/о н/о +28.0 +23 +23 комфорт 1014.3 991.4
13 20.04 штиль 0
{2}
н/о н/о +29.6 +25 +25 комфорт 1014.4 991.6
14 20.04 СВ 1
{2}
н/о н/о +31.1 +26 +26 жарко 1013.7 991.0
15 20.04 ЮВ 1
{2}
н/о н/о +32.9 +28 +28 жарко 1012.4 989.9
16 20.04 В 1
{2}
н/о н/о +33.3 +28 +28 жарко 1011.2 988.7
17 20.04 Ю 2
{5}
н/о н/о +30.4 +25 +25 комфорт 1010.2 987.6
18 20.04 З 1
{5}
н/о н/о +28.3 -19.8 3 +24 +24 комфорт 1009.7 986.9
19 20.04 С 2
{3}
н/о н/о +30.3 +25 +25 комфорт 1008.5 985.9
20 20.04 штиль 0
{3}
н/о н/о +31.9 +27 +27 жарко 1008.4 985.9
21 20.04 СВ 1
{1}
н/о н/о +29.5 -20.3 3 +25 +25 комфорт 1009.1 986.4
22 20.04 штиль 0
{1}
н/о н/о +27.3 -11.6 7 +24 +24 комфорт 1009.8 986.9
23 20.04 штиль 0 н/о н/о +27.0 -8.4 9 +24 +24 комфорт 1010.1 987.2
00 21.04 штиль 0
{2}
н/о н/о +26.7 -3.8 13 +24 +24 комфорт 1010.7 987.8
01 21.04 ЮЗ 1
{2}
н/о н/о +27.4 -10.2 8 +24 +24 комфорт 1012.0 989.1
02 21.04 штиль 0
{1}
н/о н/о +26.9 -8.3 9 +24 +24 комфорт 1012.3 989.3
03 21.04 Ю 1
{2}
н/о н/о +26.8 -6.1 11 +24 +24 комфорт 1012.3 989.3
04 21.04 штиль 0
{2}
н/о н/о +26.5 -5.1 12 +24 +24 комфорт 1011.5 988.5
05 21.04 штиль 0
{1}
н/о н/о +26.1 +14.4 48 +28 +28 жарко 1010.8 987.8
06 21.04 З 2
{6}
н/о н/о +22.8 +5.8 33 +23 +23 комфорт 1010.8 987.6 1
07 21.04 С 2
{6}
н/о н/о +22.9 +19 +19 1011.6 988.4 49
08 21.04 ЮЗ 1
{3}
н/о н/о +23.0 +13.3 54 +26 +26 жарко 1011.6 988.4 3
09 21.04 С 3
{4}
н/о н/о +22.7 +19 +19 1013.1 989.8 4
10 21.04 С 2
{4}
н/о н/о +22.3 +19 +19 1013.5 990.2 3
11 21.04 штиль 0
{3}
н/о н/о +22.5 -24.9 3 +20 +20 1013.6 990.3 1
12 21.04 штиль 0
{1}
н/о н/о +23.2 -24.5 3 +20 +20 1014.1 990.8
13 21.04 штиль 0
{1}
н/о н/о +24.5 -23.6 3 +21 +21 комфорт 1014.3 991.1
14 21.04 штиль 0
{2}
н/о н/о +25.5 -22.9 3 +22 +22 комфорт 1013.5 990.4
15 21.04 штиль 0
{2}
н/о н/о +26.9 -21.8 3 +23 +23 комфорт 1012.7 989.7
16 21.04 С 1
{1}
н/о н/о +27.5 -21.6 3 +23 +23 комфорт 1011.1 988.2
17 21.04 штиль 0
{2}
н/о н/о +28.4 +23 +23 комфорт 1009.8 987.0
18 21.04 Ю 1
{1}
н/о н/о +29.0 -20.5 3 +24 +24 комфорт 1008.8 986.1
19 21.04 ЮЗ 1
{2}
н/о н/о +29.8 -20.0 3 +25 +25 комфорт 1008.4 985.7
21 21.04 штиль 0
{1}
н/о н/о +28.9 -15.2 5 +25 +25 комфорт 1009.1 986.4
22 21.04 штиль 0 н/о н/о +26.9 -16.2 5 +23 +23 комфорт 1009.7 986.8
23 21.04 штиль 0
{1}
н/о н/о +26.3 -22.4 3 +22 +22 комфорт 1010.3 987.3
00 22.04 В 1
{1}
н/о н/о +25.9 -17.1 5 +22 +22 комфорт 1010.5 987.5
01 22.04 СВ 1
{1}
н/о н/о +25.4 +21 +21 комфорт 1010.8 987.8
02 22.04 штиль 0
{1}
н/о н/о +25.1 +21 +21 комфорт 1011.6 988.5
03 22.04 штиль 0
{1}
н/о н/о +24.6 +21 +21 комфорт 1012.2 989.1

 

Местоположение метеостанции Сан-Феликс-ду-Арагуайя (Мату-Гросу, Бразилия): широта -11.62 долгота -50.73 высота над уровнем моря 220 м.

В архиве по умолчанию представлена погода в Сан-Феликс-ду-Арагуайе за последнюю неделю. Архивные данные за месяц целиком и за предыдущие месяцы, начиная с января 2011 года, Вы можете получить, выбрав интересующий диапазон дат из раскрывающегося списка и нажав кнопку "Ввод!".


*Определитесь, кто Вы:
робот инопланетянин человек

Внимание! Время в таблицах - всемирное. Для получения местного времени необходимо прибавить поправку, которая равна -3 ч.

Смотрите также архив погоды в соседних городах и на ближайших метеорологических станциях:

Погода в Формозу-ду-Арагуае (Токантинс, Бразилия) (126 км)
Погода в Лагоа-да-Конфузане (Токантинс, Бразилия) (132 км)
Погода в Сан-Мигел-ду-Арагуая (Гояс, Бразилия) (140 км)
Погода в Конфрезе (Мату-Гросу, Бразилия) (142 км)
Погода в Арагуасу (Токантинс, Бразилия) (169 км)
Погода в Пиуне (Токантинс, Бразилия) (175 км)
Погода в Гурупи (Токантинс, Бразилия) (184 км)
Погода в Кьюренции (Мату-Гросу, Бразилия) (197 км)
Погода в Пейши (Токантинс, Бразилия) (241 км)
Погода в Пейши (Токантинс, Бразилия) (244 км)

Пояснения к столбцам:

Ветер - указаны скорость ветра в м/с - средняя за 10 мин, порывы в срок и между сроками (в фигурных скобках) и направление, откуда дует ветер: С - северный, СВ - северо-восточный, В - восточный, ЮВ - юго-восточный, Ю - южный, ЮЗ - юго-западный, З - западный, СЗ - северо-западный.
Видимость - горизонтальная дальность видимости в метрах или километрах. При видимости от 1 до 10 км при отсутствии осадков обычно наблюдается дымка, при ухудшении видимости до 1 км и менее - туман. В сухую погоду видимость может ухудшаться дымом, пылью или мглою.
Явления - указаны атмосферные явления, наблюдавшиеся в срок или в последний час перед сроком; фигурными скобками обозначены явления, наблюдавшиеся между сроками (за 1-3 часа до срока); квадратными скобками обозначены град или гололедные отложения с указанием их диаметра в мм.
Облачность - указаны через наклонную черту общая и нижняя облачность в баллах и высота нижней границы облаков в метрах; квадратными скобками обозначены формы облаков: Ci - перистые, Cs - перисто-слоистые, Cc - перисто-кучевые, Ac - высококучевые, As - высокослоистые, Sc - слоисто-кучевые, Ns - слоисто-дождевые, Cu - кучевые, Cb - кучево-дождевые. Подробнее классификацию облаков см. в Атласе облаков (PDF).
T - Температура воздуха - температура, измеренная на высоте 2 м над землей.
Td - Температура точки росы - температура, при понижении до которой содержащийся в воздухе водяной пар достигнет насыщения.
f - Относительная влажность воздуха - влажноcть воздуха, измеренная на высоте 2 м над землей.
Te - Эффективная температура - температура, которую ощущает одетый по сезону человек в тени. Характеристика душности погоды. При расчете учитывается влияние влажности воздуха и скорости ветра на теплоощущения человека.
Tes - Эффективная температура на солнце - температура, которую ощущает человек, с поправкой на солнечный нагрев. Характеристика знойности погоды. Зависит от высоты солнца над горизонтом, облачности и скорости ветра. Ночью, в пасмурную погоду, а также при ветре 12 м/с и более поправка равна нулю.
P - Атмосферное давление - приведенное к уровню моря атмосферное давление.
Po - Атмосферное давление - измеренное на уровне метеостанции атмосферное давление.
Tmin - Минимальная температура - минимум температуры воздуха на высоте 2 м над землей.
Tmax - Максимальная температура - максимум температуры воздуха на высоте 2 м над землей.
R - Количество осадков - Количество выпавших осадков за период времени, мм. При наведении курсора мыши на число - период времени, за который выпало указанное количество осадков.
R24 - Количество осадков - Количество выпавших осадков за 24 часа, мм.
S - Снежный покров - Высота снежного покрова, см. При наведении курсора мыши на число - состояние снежного покрова и степень покрытия местности в баллах.